STARLINK-1080, 44961

Orbit data source: Space-Track

STARLINK-1080, 44961 is a payload satellite owned by SpaceX/Seattle (US) in LEO that was launched on Tue, 07 Jan 2020 UTC via an FALCON 9 launch vehicle from the Air Force Eastern Test Range (AFETR). Payload-class satellites include a variety of spacecraft equipped with specific instruments for various scientific and technological missions. These include communications satellites like Starlink; space stations such as the ISS; scientific satellites like the Hubble; Earth observation satellites from companies like Planet Labs, Umbra, and HawkEye 360; GPS; miniature CubeSats for education and research; and military/defense satellites.

Loading next visibility...
Identifier
44961, 2020-001AZ
Orbit
LEO
Country
Flag of USUS
Related business
Manufacturer
SpaceX/Seattle
Mission
Operational Commercial Communications
Bus & Motor
STARLINK, Unknown motor
Mass
260 kg wet, ~248 kg dry
Launch date (UTC)
2020-01-07 (6 years ago)
Launch vehicle
FALCON 9
Launch site
Air Force Eastern Test Range (AFETR)
Object type
Payload
Rocket body
Debris
Shape & HBR
Box + 1 Pan, 10.1 m
Radar Cross Section
13.562 m², Large (>1 m²)

Expand to show TLE details & history
Last TLE update: 12 hours ago

TLE from 12 hours ago
0 STARLINK-1080
1 44961U 20001AZ  25311.87729608  .00000202  00000-0  32493-4 0  9995
2 44961  53.0536 133.4553 0001555  89.1197 270.9970 15.06385260322055
Epoch: 2025-11-07T21:03Z
TLE epoch observation values (Epoch: 2025-11-07T21:03:18.381Z)
Latitude
-0.00002°
Longitude
130.31374°
Altitude
548.117 km
Speed
7.589 km/s
True Right ascension
08h 53m 49s
True Declination
0° 00' 00"
Sunlit
Object was in daylight at epoch
Visualization orbit readout
Latitude
Unknown
Longitude
Unknown
Altitude
Unknown
Speed
Unknown
Apparent Right ascension
Unknown
Apparent Declination
Unknown
Sunlit
N/A
Visualization observer readout
Local Sidereal Time
05:41:40
Azimuth
Unknown
Elevation
Unknown
Doppler factor
Unknown
Orbital elements
Apogee altitude
548.605 km
Perigee altitude
546.451 km
Semi-major axis
6,925.665 km
Eccentricity
0.00016
Inclination
53.0536°
RAAN
133.4553°
Arg. of periapsis
89.1197°
True anomaly
270.97918°
Mean anomaly
270.997°
Eccentric anomaly
270.98809°
Mean motion
3.76575 °/min
Orbital period
95.6 mins
BSTAR
0.000032493
Loading maneuver chart data...
Computing Atmospheric mass density...

Documentation

Showing up to 5 results
|